Preview of NWS' New Version of Forecast
This preview is not operational and should not be used for support decisions.

Regional Weather Roundup (RWR)

Issued by National Weather Service (NWS)

                            
000
ASCA42 TJSJ 200210
RWRPR 
PUERTO RICO/U.S. VIRGIN ISLANDS HOURLY WEATHER ROUNDUP
NATIONAL WEATHER SERVICE SAN JUAN PR
1000 PM AST TUE FEB 19 2019

PRZ001>002-007>008-010-200300-
PUERTO RICO
  
CITY           SKY/WX    TMP DP  RH WIND       PRES   REMARKS
SAN JUAN LMM   PTCLDY    77  66  69 E8        30.13R                  
AGUADILLA      CLEAR     73  64  73 E10       30.14R                  
CEIBA          MOCLDY    75  66  73 E10       30.14R                  
$$

VIZ001>002-200300-
U.S. VIRGIN ISLANDS
  
CITY           SKY/WX    TMP DP  RH WIND       PRES   REMARKS
CHARLOTTE AMA  CLEAR     77  66  69 E10       30.12R                  
CHRISTIANSTED  CLEAR     79  68  69 NE13      30.12R                  
$$

HOURLY WEATHER ROUNDUP FOR THE NEWS MEDIA
  
CITY           SKY/WX    TMP DP  RH WIND       PRES   REMARKS
ORLANDO        FAIR      74  68  81 SE13      30.18R                  
NEW YORK       CLOUDY    32   8  36 NW10      30.61R WCI  24          
NEWARK         CLOUDY    32   4  30 NW13      30.60S WCI  22          
CHICAGO        CLOUDY    29  22  75 E7        30.41F WCI  22          
HARTFORD       FAIR      26   5  40 NW7       30.55R WCI  18          
BOSTON         MOCLDY    26   1  34 NW8       30.55R WCI  18          
DALLAS         CLOUDY    40  37  89 N5        29.93R FOG              
PHILADELPHIA   CLOUDY    33   7  33 N8        30.62R WCI  26          
LOS ANGELES    CLEAR     53  35  50 W12       30.10R                  
WASHINGTON DC  CLOUDY    35  10  35 NE3       30.60S